User: anonymous   Login
Location: Igon
(43.1667°N, 0.2333°W)
Time: 09:59:33
(UTC+00:00)
Language:

LKW-4 - Orbit

View from above orbital plane
View from above orbital plane
View from above satellite
View from above satellite

Ground track
Ground track

The orbit data is extracted from the following two-line orbital elements,

1 43236U 18025A   21165.05426039  .00000934  00000-0  42214-4 0  9991
2 43236  97.4425 283.6161 0006877  87.9275 272.2749 15.23409535180373
Epoch (UTC): 14 June 2021 01:18:08
Eccentricity: 0.0006877
inclination: 97.4425°
perigee height: 491 km
apogee height: 500 km
right ascension of ascending node: 283.6161°
argument of perigee: 87.9275°
revolutions per day: 15.23409535
mean anomaly at epoch: 272.2749°
orbit number at epoch: 18037

The dashed part of the orbit path shows where the satellite is in the earth's shadow,  

DLR